Year,Month,Day,Hour,Minute,Value (Times are PST for temperature in C)
2014,04,28,00,00,3.40
2014,04,28,00,01,3.40
2014,04,28,00,02,3.40
2014,04,28,00,03,3.40
2014,04,28,00,04,3.40
2014,04,28,00,05,3.40
2014,04,28,00,06,3.40
2014,04,28,00,07,3.40
2014,04,28,00,08,3.40
2014,04,28,00,09,3.40
2014,04,28,00,10,3.40
2014,04,28,00,11,3.40
2014,04,28,00,12,3.40
2014,04,28,00,13,3.40
2014,04,28,00,14,3.40
2014,04,28,00,15,3.40
2014,04,28,00,16,3.40
2014,04,28,00,17,3.40
2014,04,28,00,18,3.40
2014,04,28,00,19,3.40
2014,04,28,00,20,3.30
2014,04,28,00,21,3.30
2014,04,28,00,22,3.30
2014,04,28,00,23,3.30
2014,04,28,00,24,3.30
2014,04,28,00,25,3.30
2014,04,28,00,26,3.30
2014,04,28,00,27,3.20
2014,04,28,00,28,3.20
2014,04,28,00,29,3.20
2014,04,28,00,30,3.20
2014,04,28,00,31,3.20
2014,04,28,00,32,3.20
2014,04,28,00,33,3.20
2014,04,28,00,34,3.20
2014,04,28,00,35,3.10
2014,04,28,00,36,3.10
2014,04,28,00,37,3.10
2014,04,28,00,38,3.10
2014,04,28,00,39,3.10
2014,04,28,00,40,3.10
2014,04,28,00,41,3.10
2014,04,28,00,42,3.10
2014,04,28,00,43,3.10
2014,04,28,00,44,3.10
2014,04,28,00,45,3.10
2014,04,28,00,46,3.10
2014,04,28,00,47,3.10
2014,04,28,00,48,3.10
2014,04,28,00,49,3.10
2014,04,28,00,50,3.00
2014,04,28,00,51,3.00
2014,04,28,00,52,3.00
2014,04,28,00,53,2.90
2014,04,28,00,54,2.90
2014,04,28,00,55,2.90
2014,04,28,00,56,2.90
2014,04,28,00,57,2.80
2014,04,28,00,58,2.80
2014,04,28,00,59,2.80
2014,04,28,01,00,2.80
2014,04,28,01,01,2.80
2014,04,28,01,02,2.80
2014,04,28,01,03,2.80
2014,04,28,01,04,2.70
2014,04,28,01,05,2.70
2014,04,28,01,06,2.70
2014,04,28,01,07,2.60
2014,04,28,01,08,2.60
2014,04,28,01,09,2.50
2014,04,28,01,10,2.50
2014,04,28,01,11,2.50
2014,04,28,01,12,2.40
2014,04,28,01,13,2.40
2014,04,28,01,14,2.40
2014,04,28,01,15,2.40
2014,04,28,01,16,2.40
2014,04,28,01,17,2.40
2014,04,28,01,18,2.50
2014,04,28,01,19,2.50
2014,04,28,01,20,2.50
2014,04,28,01,21,2.50
2014,04,28,01,22,2.50
2014,04,28,01,23,2.50
2014,04,28,01,24,2.40
2014,04,28,01,25,2.40
2014,04,28,01,26,2.40
2014,04,28,01,27,2.40
2014,04,28,01,28,2.40
2014,04,28,01,29,2.40
2014,04,28,01,30,2.40
2014,04,28,01,31,2.40
2014,04,28,01,32,2.40
2014,04,28,01,33,2.40
2014,04,28,01,34,2.40
2014,04,28,01,35,2.40
2014,04,28,01,36,2.40
2014,04,28,01,37,2.40
2014,04,28,01,38,2.30
2014,04,28,01,39,2.30
2014,04,28,01,40,2.30
2014,04,28,01,41,2.30
2014,04,28,01,42,2.30
2014,04,28,01,43,2.30
2014,04,28,01,44,2.30
2014,04,28,01,45,2.30
2014,04,28,01,46,2.20
2014,04,28,01,47,2.20
2014,04,28,01,48,2.20
2014,04,28,01,49,2.20
2014,04,28,01,50,2.20
2014,04,28,01,51,2.20
2014,04,28,01,52,2.10
2014,04,28,01,53,2.10
2014,04,28,01,54,2.10
2014,04,28,01,55,2.10
2014,04,28,01,56,2.10
2014,04,28,01,57,2.10
2014,04,28,01,58,2.10
2014,04,28,01,59,2.00
2014,04,28,02,00,2.10
2014,04,28,02,01,2.10
2014,04,28,02,02,2.10
2014,04,28,02,03,2.10
2014,04,28,02,04,2.10
2014,04,28,02,05,2.00
2014,04,28,02,06,2.00
2014,04,28,02,07,2.00
2014,04,28,02,08,2.00
2014,04,28,02,09,2.00
2014,04,28,02,10,2.00
2014,04,28,02,11,1.90
2014,04,28,02,12,1.90
2014,04,28,02,13,1.90
2014,04,28,02,14,1.90
2014,04,28,02,15,1.90
2014,04,28,02,16,1.90
2014,04,28,02,17,1.90
2014,04,28,02,18,1.90
2014,04,28,02,19,1.90
2014,04,28,02,20,1.90
2014,04,28,02,21,1.90
2014,04,28,02,22,1.90
2014,04,28,02,23,1.80
2014,04,28,02,24,1.80
2014,04,28,02,25,1.80
2014,04,28,02,26,1.80
2014,04,28,02,27,1.80
2014,04,28,02,28,1.80
2014,04,28,02,29,1.80
2014,04,28,02,30,1.80
2014,04,28,02,31,1.80
2014,04,28,02,32,1.80
2014,04,28,02,33,1.80
2014,04,28,02,34,1.80
2014,04,28,02,35,1.80
2014,04,28,02,36,1.80
2014,04,28,02,37,1.80
2014,04,28,02,38,1.80
2014,04,28,02,39,1.80
2014,04,28,02,40,1.70
2014,04,28,02,41,1.70
2014,04,28,02,42,1.70
2014,04,28,02,43,1.70
2014,04,28,02,44,1.70
2014,04,28,02,45,1.60
2014,04,28,02,46,1.60
2014,04,28,02,47,1.60
2014,04,28,02,48,1.60
2014,04,28,02,49,1.60
2014,04,28,02,50,1.60
2014,04,28,02,51,1.60
2014,04,28,02,52,1.60
2014,04,28,02,53,1.60
2014,04,28,02,54,1.60
2014,04,28,02,55,1.60
2014,04,28,02,56,1.60
2014,04,28,02,57,1.60
2014,04,28,02,58,1.60
2014,04,28,02,59,1.60
2014,04,28,03,00,1.60
2014,04,28,03,01,1.60
2014,04,28,03,02,1.60
2014,04,28,03,06,1.60
2014,04,28,03,07,1.60
2014,04,28,03,08,1.60
2014,04,28,03,09,1.60
2014,04,28,03,10,1.60
2014,04,28,03,11,1.60
2014,04,28,03,12,1.50
2014,04,28,03,13,1.50
2014,04,28,03,14,1.50
2014,04,28,03,15,1.50
2014,04,28,03,16,1.50
2014,04,28,03,17,1.50
2014,04,28,03,18,1.40
2014,04,28,03,19,1.50
2014,04,28,03,20,1.40
2014,04,28,03,21,1.50
2014,04,28,03,22,1.50
2014,04,28,03,23,1.50
2014,04,28,03,24,1.50
2014,04,28,03,25,1.40
2014,04,28,03,26,1.40
2014,04,28,03,27,1.40
2014,04,28,03,28,1.40
2014,04,28,03,29,1.30
2014,04,28,03,30,1.30
2014,04,28,03,31,1.30
2014,04,28,03,32,1.30
2014,04,28,03,33,1.30
2014,04,28,03,34,1.30
2014,04,28,03,35,1.30
2014,04,28,03,36,1.30
2014,04,28,03,37,1.30
2014,04,28,03,38,1.30
2014,04,28,03,39,1.30
2014,04,28,03,40,1.30
2014,04,28,03,41,1.30
2014,04,28,03,42,1.30
2014,04,28,03,43,1.30
2014,04,28,03,44,1.20
2014,04,28,03,45,1.20
2014,04,28,03,46,1.30
2014,04,28,03,47,1.20
2014,04,28,03,48,1.20
2014,04,28,03,49,1.20
2014,04,28,03,50,1.30
2014,04,28,03,51,1.30
2014,04,28,03,52,1.30
2014,04,28,03,53,1.30
2014,04,28,03,54,1.30
2014,04,28,03,55,1.30
2014,04,28,03,56,1.30
2014,04,28,03,57,1.30
2014,04,28,03,58,1.30
2014,04,28,03,59,1.30
2014,04,28,04,00,1.30
2014,04,28,04,01,1.30
2014,04,28,04,02,1.30
2014,04,28,04,03,1.30
2014,04,28,04,04,1.30
2014,04,28,04,05,1.30
2014,04,28,04,06,1.20
2014,04,28,04,07,1.20
2014,04,28,04,08,1.20
2014,04,28,04,09,1.20
2014,04,28,04,10,1.20
2014,04,28,04,11,1.20
2014,04,28,04,12,1.20
2014,04,28,04,13,1.20
2014,04,28,04,14,1.20
2014,04,28,04,15,1.20
2014,04,28,04,16,1.20
2014,04,28,04,17,1.20
2014,04,28,04,18,1.20
2014,04,28,04,19,1.20
2014,04,28,04,20,1.20
2014,04,28,04,21,1.20
2014,04,28,04,22,1.20
2014,04,28,04,23,1.20
2014,04,28,04,24,1.20
2014,04,28,04,25,1.20
2014,04,28,04,26,1.20
2014,04,28,04,27,1.20
2014,04,28,04,28,1.30
2014,04,28,04,29,1.20
2014,04,28,04,30,1.30
2014,04,28,04,31,1.30
2014,04,28,04,32,1.30
2014,04,28,04,33,1.30
2014,04,28,04,34,1.20
2014,04,28,04,35,1.20
2014,04,28,04,36,1.20
2014,04,28,04,37,1.10
2014,04,28,04,38,1.10
2014,04,28,04,39,1.00
2014,04,28,04,40,1.00
2014,04,28,04,41,1.00
2014,04,28,04,42,0.90
2014,04,28,04,43,0.90
2014,04,28,04,44,0.90
2014,04,28,04,45,0.90
2014,04,28,04,46,0.90
2014,04,28,04,47,0.90
2014,04,28,04,48,0.90
2014,04,28,04,49,0.90
2014,04,28,04,50,0.90
2014,04,28,04,51,0.90
2014,04,28,04,52,0.90
2014,04,28,04,53,0.90
2014,04,28,04,54,0.90
2014,04,28,04,55,0.90
2014,04,28,04,56,0.90
2014,04,28,04,57,0.90
2014,04,28,04,58,0.90
2014,04,28,04,59,0.90
2014,04,28,05,00,0.90
2014,04,28,05,01,1.00
2014,04,28,05,02,1.00
2014,04,28,05,03,1.10
2014,04,28,05,04,1.10
2014,04,28,05,05,1.20
2014,04,28,05,06,1.20
2014,04,28,05,07,1.20
2014,04,28,05,08,1.10
2014,04,28,05,09,1.10
2014,04,28,05,10,1.10
2014,04,28,05,11,1.10
2014,04,28,05,12,1.00
2014,04,28,05,13,1.00
2014,04,28,05,14,0.90
2014,04,28,05,15,0.90
2014,04,28,05,16,0.90
2014,04,28,05,17,0.90
2014,04,28,05,18,0.80
2014,04,28,05,19,0.80
2014,04,28,05,20,0.80
2014,04,28,05,21,0.70
2014,04,28,05,22,0.70
2014,04,28,05,23,0.70
2014,04,28,05,24,0.60
2014,04,28,05,25,0.60
2014,04,28,05,26,0.60
2014,04,28,05,27,0.60
2014,04,28,05,28,0.60
2014,04,28,05,29,0.70
2014,04,28,05,30,0.70
2014,04,28,05,31,0.70
2014,04,28,05,32,0.70
2014,04,28,05,33,0.80
2014,04,28,05,34,0.80
2014,04,28,05,35,0.80
2014,04,28,05,36,0.80
2014,04,28,05,37,0.80
2014,04,28,05,38,0.70
2014,04,28,05,39,0.70
2014,04,28,05,40,0.70
2014,04,28,05,41,0.60
2014,04,28,05,42,0.50
2014,04,28,05,43,0.50
2014,04,28,05,44,0.40
2014,04,28,05,45,0.40
2014,04,28,05,46,0.40
2014,04,28,05,47,0.30
2014,04,28,05,48,0.30
2014,04,28,05,49,0.30
2014,04,28,05,50,0.30
2014,04,28,05,51,0.30
2014,04,28,05,52,0.30
2014,04,28,05,53,0.30
2014,04,28,05,54,0.30
2014,04,28,05,55,0.30
2014,04,28,05,56,0.30
2014,04,28,05,57,0.30
2014,04,28,05,58,0.30
2014,04,28,05,59,0.30
2014,04,28,06,00,0.30
2014,04,28,06,01,0.30
2014,04,28,06,02,0.30
2014,04,28,06,03,0.30
2014,04,28,06,04,0.30
2014,04,28,06,05,0.30
2014,04,28,06,06,0.30
2014,04,28,06,07,0.30
2014,04,28,06,08,0.40
2014,04,28,06,09,0.40
2014,04,28,06,10,0.40
2014,04,28,06,11,0.40
2014,04,28,06,12,0.40
2014,04,28,06,13,0.40
2014,04,28,06,14,0.40
2014,04,28,06,15,0.40
2014,04,28,06,16,0.50
2014,04,28,06,17,0.50
2014,04,28,06,18,0.50
2014,04,28,06,19,0.50
2014,04,28,06,20,0.40
2014,04,28,06,21,0.40
2014,04,28,06,22,0.40
2014,04,28,06,23,0.40
2014,04,28,06,24,0.40
2014,04,28,06,25,0.40
2014,04,28,06,26,0.40
2014,04,28,06,27,0.40
2014,04,28,06,28,0.40
2014,04,28,06,29,0.40
2014,04,28,06,30,0.40
2014,04,28,06,31,0.40
2014,04,28,06,32,0.40
2014,04,28,06,33,0.40
2014,04,28,06,34,0.40
2014,04,28,06,35,0.40
2014,04,28,06,36,0.40
2014,04,28,06,37,0.40
2014,04,28,06,38,0.50
2014,04,28,06,39,0.50
2014,04,28,06,40,0.50
2014,04,28,06,41,0.50
2014,04,28,06,42,0.60
2014,04,28,06,43,0.60
2014,04,28,06,44,0.60
2014,04,28,06,45,0.70
2014,04,28,06,46,0.70
2014,04,28,06,47,0.70
2014,04,28,06,48,0.70
2014,04,28,06,49,0.80
2014,04,28,06,50,0.80
2014,04,28,06,51,0.90
2014,04,28,06,52,0.90
2014,04,28,06,53,0.90
2014,04,28,06,54,1.00
2014,04,28,06,55,1.00
2014,04,28,06,56,1.00
2014,04,28,06,57,1.10
2014,04,28,06,58,1.10
2014,04,28,06,59,1.10
2014,04,28,07,00,1.10
2014,04,28,07,01,1.10
2014,04,28,07,02,1.10
2014,04,28,07,03,1.10
2014,04,28,07,04,1.10
2014,04,28,07,05,1.10
2014,04,28,07,06,1.20
2014,04,28,07,07,1.20
2014,04,28,07,08,1.20
2014,04,28,07,09,1.20
2014,04,28,07,10,1.20
2014,04,28,07,11,1.20
2014,04,28,07,12,1.30
2014,04,28,07,13,1.30
2014,04,28,07,14,1.30
2014,04,28,07,15,1.30
2014,04,28,07,16,1.30
2014,04,28,07,17,1.40
2014,04,28,07,18,1.50
2014,04,28,07,19,1.50
2014,04,28,07,20,1.60
2014,04,28,07,21,1.60
2014,04,28,07,22,1.70
2014,04,28,07,23,1.70
2014,04,28,07,24,1.80
2014,04,28,07,25,1.80
2014,04,28,07,26,1.90
2014,04,28,07,27,1.90
2014,04,28,07,28,2.00
2014,04,28,07,29,2.10
2014,04,28,07,30,2.10
2014,04,28,07,31,2.10
2014,04,28,07,32,2.20
2014,04,28,07,33,2.20
2014,04,28,07,34,2.20
2014,04,28,07,35,2.30
2014,04,28,07,36,2.30
2014,04,28,07,37,2.30
2014,04,28,07,38,2.40
2014,04,28,07,39,2.40
2014,04,28,07,40,2.50
2014,04,28,07,41,2.60
2014,04,28,07,42,2.70
2014,04,28,07,43,2.70
2014,04,28,07,44,2.80
2014,04,28,07,45,2.80
2014,04,28,07,46,2.90
2014,04,28,07,47,3.00
2014,04,28,07,48,3.10
2014,04,28,07,49,3.10
2014,04,28,07,50,3.20
2014,04,28,07,51,3.30
2014,04,28,07,52,3.30
2014,04,28,07,53,3.40
2014,04,28,07,54,3.50
2014,04,28,07,55,3.50
2014,04,28,07,56,3.60
2014,04,28,07,57,3.60
2014,04,28,07,58,3.70
2014,04,28,07,59,3.70
2014,04,28,08,00,3.80
2014,04,28,08,01,3.80
2014,04,28,08,02,3.90
2014,04,28,08,03,3.90
2014,04,28,08,04,4.00
2014,04,28,08,05,4.00
2014,04,28,08,06,4.10
2014,04,28,08,07,4.10
2014,04,28,08,08,4.10
2014,04,28,08,09,4.10
2014,04,28,08,10,4.20
2014,04,28,08,11,4.30
2014,04,28,08,12,4.30
2014,04,28,08,13,4.40
2014,04,28,08,14,4.50
2014,04,28,08,15,4.60
2014,04,28,08,16,4.70
2014,04,28,08,17,4.80
2014,04,28,08,18,4.90
2014,04,28,08,19,5.00
2014,04,28,08,20,5.20
2014,04,28,08,21,5.30
2014,04,28,08,22,5.50
2014,04,28,08,23,5.70
2014,04,28,08,24,5.80
2014,04,28,08,25,6.10
2014,04,28,08,26,6.20
2014,04,28,08,27,6.40
2014,04,28,08,28,6.60
2014,04,28,08,29,6.70
2014,04,28,08,30,6.90
2014,04,28,08,31,7.10
2014,04,28,08,32,7.20
2014,04,28,08,33,7.30
2014,04,28,08,34,7.40
2014,04,28,08,35,7.50
2014,04,28,08,36,7.70
2014,04,28,08,37,7.80
2014,04,28,08,38,7.90
2014,04,28,08,39,7.90
2014,04,28,08,40,8.00
2014,04,28,08,41,8.10
2014,04,28,08,42,8.10
2014,04,28,08,43,8.20
2014,04,28,08,44,8.20
2014,04,28,08,45,8.30
2014,04,28,08,46,8.30
2014,04,28,08,47,8.40
2014,04,28,08,48,8.40
2014,04,28,08,49,8.40
2014,04,28,08,50,8.50
2014,04,28,08,51,8.50
2014,04,28,08,52,8.60
2014,04,28,08,53,8.60
2014,04,28,08,54,8.70
2014,04,28,08,55,8.70
2014,04,28,08,56,8.80
2014,04,28,08,57,8.80
2014,04,28,08,58,8.90
2014,04,28,08,59,8.90
2014,04,28,09,00,9.00
2014,04,28,09,01,9.00
2014,04,28,09,02,9.10
2014,04,28,09,03,9.10
2014,04,28,09,04,9.10
2014,04,28,09,05,9.10
2014,04,28,09,06,9.10
2014,04,28,09,07,9.10
2014,04,28,09,08,9.10
2014,04,28,09,09,9.10
2014,04,28,09,10,9.10
2014,04,28,09,11,9.10
2014,04,28,09,12,9.20
2014,04,28,09,13,9.20
2014,04,28,09,14,9.30
2014,04,28,09,15,9.30
2014,04,28,09,16,9.40
2014,04,28,09,17,9.50
2014,04,28,09,18,9.60
2014,04,28,09,19,9.60
2014,04,28,09,20,9.70
2014,04,28,09,21,9.70
2014,04,28,09,22,9.80
2014,04,28,09,23,9.80
2014,04,28,09,24,9.80
2014,04,28,09,25,9.70
2014,04,28,09,26,9.70
2014,04,28,09,27,9.70
2014,04,28,09,28,9.70
2014,04,28,09,29,9.70
2014,04,28,09,30,9.70
2014,04,28,09,31,9.70
2014,04,28,09,32,9.70
2014,04,28,09,33,9.80
2014,04,28,09,34,9.80
2014,04,28,09,35,9.80
2014,04,28,09,36,9.80
2014,04,28,09,37,9.90
2014,04,28,09,38,9.90
2014,04,28,09,39,10.00
2014,04,28,09,40,10.10
2014,04,28,09,41,10.20
2014,04,28,09,42,10.30
2014,04,28,09,43,10.30
2014,04,28,09,44,10.40
2014,04,28,09,45,10.30
2014,04,28,09,46,10.30
2014,04,28,09,47,10.30
2014,04,28,09,48,10.40
2014,04,28,09,49,10.50
2014,04,28,09,50,10.60
2014,04,28,09,51,10.70
2014,04,28,09,52,10.80
2014,04,28,09,53,10.80
2014,04,28,09,54,10.90
2014,04,28,09,55,10.90
2014,04,28,09,56,10.90
2014,04,28,09,57,10.90
2014,04,28,09,58,10.80
2014,04,28,09,59,10.80
2014,04,28,10,00,10.80
2014,04,28,10,01,10.80
2014,04,28,10,02,10.90
2014,04,28,10,03,10.90
2014,04,28,10,04,11.00
2014,04,28,10,05,11.00
2014,04,28,10,06,11.10
2014,04,28,10,07,11.10
2014,04,28,10,08,11.10
2014,04,28,10,09,11.10
2014,04,28,10,10,11.10
2014,04,28,10,11,11.00
2014,04,28,10,12,11.00
2014,04,28,10,13,11.00
2014,04,28,10,14,11.00
2014,04,28,10,15,11.00
2014,04,28,10,16,11.00
2014,04,28,10,17,11.00
2014,04,28,10,18,11.00
2014,04,28,10,19,11.00
2014,04,28,10,20,11.10
2014,04,28,10,21,11.10
2014,04,28,10,22,11.10
2014,04,28,10,23,11.20
2014,04,28,10,24,11.20
2014,04,28,10,25,11.10
2014,04,28,10,26,11.10
2014,04,28,10,27,11.10
2014,04,28,10,28,11.10
2014,04,28,10,29,11.10
2014,04,28,10,30,11.10
2014,04,28,10,31,11.10
2014,04,28,10,32,11.10
2014,04,28,10,33,11.10
2014,04,28,10,34,11.10
2014,04,28,10,35,11.10
2014,04,28,10,36,11.10
2014,04,28,10,37,11.20
2014,04,28,10,38,11.20
2014,04,28,10,39,11.20
2014,04,28,10,40,11.20
2014,04,28,10,41,11.20
2014,04,28,10,42,11.20
2014,04,28,10,43,11.30
2014,04,28,10,44,11.30
2014,04,28,10,45,11.40
2014,04,28,10,46,11.40
2014,04,28,10,47,11.40
2014,04,28,10,48,11.40
2014,04,28,10,49,11.40
2014,04,28,10,50,11.40
2014,04,28,10,51,11.40
2014,04,28,10,52,11.40
2014,04,28,10,53,11.50
2014,04,28,10,54,11.50
2014,04,28,10,55,11.60
2014,04,28,10,56,11.60
2014,04,28,10,57,11.60
2014,04,28,10,58,11.60
2014,04,28,10,59,11.50
2014,04,28,11,00,11.50
2014,04,28,11,01,11.60
2014,04,28,11,02,11.50
2014,04,28,11,03,11.50
2014,04,28,11,04,11.40
2014,04,28,11,05,11.40
2014,04,28,11,06,11.40
2014,04,28,11,07,11.50
2014,04,28,11,08,11.60
2014,04,28,11,09,11.70
2014,04,28,11,10,11.80
2014,04,28,11,11,11.80
2014,04,28,11,12,11.80
2014,04,28,11,13,11.80
2014,04,28,11,14,11.80
2014,04,28,11,15,11.80
2014,04,28,11,16,11.70
2014,04,28,11,17,11.70
2014,04,28,11,18,11.70
2014,04,28,11,19,11.70
2014,04,28,11,20,11.70
2014,04,28,11,21,11.70
2014,04,28,11,22,11.80
2014,04,28,11,23,11.80
2014,04,28,11,24,11.80
2014,04,28,11,25,11.80
2014,04,28,11,26,11.80
2014,04,28,11,27,11.80
2014,04,28,11,28,11.80
2014,04,28,11,29,11.80
2014,04,28,11,30,11.70
2014,04,28,11,31,11.80
2014,04,28,11,32,11.80
2014,04,28,11,33,11.90
2014,04,28,11,34,11.90
2014,04,28,11,35,11.90
2014,04,28,11,36,11.90
2014,04,28,11,37,12.00
2014,04,28,11,38,12.00
2014,04,28,11,39,12.00
2014,04,28,11,40,11.90
2014,04,28,11,41,11.90
2014,04,28,11,42,11.90
2014,04,28,11,43,11.90
2014,04,28,11,44,11.90
2014,04,28,11,45,11.90
2014,04,28,11,46,11.90
2014,04,28,11,47,12.00
2014,04,28,11,48,12.00
2014,04,28,11,49,12.10
2014,04,28,11,50,12.20
2014,04,28,11,51,12.20
2014,04,28,11,52,12.20
2014,04,28,11,53,12.20
2014,04,28,11,54,12.30
2014,04,28,11,55,12.30
2014,04,28,11,56,12.10
2014,04,28,11,57,12.00
2014,04,28,11,58,11.90
2014,04,28,11,59,11.80
2014,04,28,12,00,11.70
2014,04,28,12,01,11.70
2014,04,28,12,02,11.70
2014,04,28,12,03,11.80
2014,04,28,12,04,11.90
2014,04,28,12,05,11.90
2014,04,28,12,06,11.90
2014,04,28,12,07,11.90
2014,04,28,12,08,11.80
2014,04,28,12,09,11.90
2014,04,28,12,10,11.90
2014,04,28,12,11,11.90
2014,04,28,12,12,11.90
2014,04,28,12,13,11.90
2014,04,28,12,14,12.00
2014,04,28,12,15,12.00
2014,04,28,12,16,12.00
2014,04,28,12,17,12.00
2014,04,28,12,18,11.90
2014,04,28,12,19,12.00
2014,04,28,12,20,12.10
2014,04,28,12,21,12.30
2014,04,28,12,22,12.40
2014,04,28,12,23,12.50
2014,04,28,12,24,12.50
2014,04,28,12,25,12.60
2014,04,28,12,26,12.60
2014,04,28,12,27,12.70
2014,04,28,12,28,12.80
2014,04,28,12,29,12.70
2014,04,28,12,30,12.70
2014,04,28,12,31,12.70
2014,04,28,12,32,12.70
2014,04,28,12,33,12.70
2014,04,28,12,34,12.70
2014,04,28,12,35,12.70
2014,04,28,12,36,12.80
2014,04,28,12,37,12.80
2014,04,28,12,38,12.80
2014,04,28,12,39,12.70
2014,04,28,12,40,12.70
2014,04,28,12,41,12.70
2014,04,28,12,42,12.60
2014,04,28,12,43,12.40
2014,04,28,12,44,12.30
2014,04,28,12,45,12.20
2014,04,28,12,46,12.10
2014,04,28,12,47,12.10
2014,04,28,12,48,12.20
2014,04,28,12,49,12.20
2014,04,28,12,50,12.30
2014,04,28,12,51,12.40
2014,04,28,12,52,12.40
2014,04,28,12,53,12.40
2014,04,28,12,54,12.40
2014,04,28,12,55,12.40
2014,04,28,12,56,12.40
2014,04,28,12,57,12.40
2014,04,28,12,58,12.40
2014,04,28,12,59,12.50
2014,04,28,13,00,12.50
2014,04,28,13,01,12.50
2014,04,28,13,02,12.50
2014,04,28,13,03,12.50
2014,04,28,13,04,12.50
2014,04,28,13,05,12.50
2014,04,28,13,06,12.50
2014,04,28,13,07,12.60
2014,04,28,13,08,12.60
2014,04,28,13,09,12.60
2014,04,28,13,10,12.60
2014,04,28,13,11,12.50
2014,04,28,13,12,12.40
2014,04,28,13,13,12.30
2014,04,28,13,14,12.20
2014,04,28,13,15,12.10
2014,04,28,13,16,12.00
2014,04,28,13,17,12.10
2014,04,28,13,18,12.20
2014,04,28,13,19,12.30
2014,04,28,13,20,12.40
2014,04,28,13,21,12.40
2014,04,28,13,22,12.50
2014,04,28,13,23,12.50
2014,04,28,13,24,12.60
2014,04,28,13,25,12.70
2014,04,28,13,26,12.80
2014,04,28,13,27,12.90
2014,04,28,13,28,13.00
2014,04,28,13,29,13.00
2014,04,28,13,30,12.90
2014,04,28,13,31,12.90
2014,04,28,13,32,12.80
2014,04,28,13,33,12.80
2014,04,28,13,34,12.70
2014,04,28,13,35,12.70
2014,04,28,13,36,12.60
2014,04,28,13,37,12.60
2014,04,28,13,38,12.60
2014,04,28,13,39,12.60
2014,04,28,13,40,12.60
2014,04,28,13,41,12.60
2014,04,28,13,42,12.70
2014,04,28,13,43,12.60
2014,04,28,13,44,12.60
2014,04,28,13,45,12.60
2014,04,28,13,46,12.60
2014,04,28,13,47,12.60
2014,04,28,13,48,12.70
2014,04,28,13,49,12.70
2014,04,28,13,50,12.70
2014,04,28,13,51,12.70
2014,04,28,13,52,12.80
2014,04,28,13,53,12.80
2014,04,28,13,54,12.70
2014,04,28,13,55,12.70
2014,04,28,13,56,12.70
2014,04,28,13,57,12.70
2014,04,28,13,58,12.60
2014,04,28,13,59,12.60
2014,04,28,14,00,12.60
2014,04,28,14,01,12.60
2014,04,28,14,02,12.60
2014,04,28,14,03,12.50
2014,04,28,14,04,12.50
2014,04,28,14,05,12.40
2014,04,28,14,06,12.40
2014,04,28,14,07,12.40
2014,04,28,14,08,12.50
2014,04,28,14,09,12.50
2014,04,28,14,10,12.60
2014,04,28,14,11,12.60
2014,04,28,14,12,12.70
2014,04,28,14,13,12.70
2014,04,28,14,14,12.60
2014,04,28,14,15,12.60
2014,04,28,14,16,12.60
2014,04,28,14,17,12.70
2014,04,28,14,18,12.70
2014,04,28,14,19,12.70
2014,04,28,14,20,12.80
2014,04,28,14,21,12.80
2014,04,28,14,22,12.80
2014,04,28,14,23,12.80
2014,04,28,14,24,12.80
2014,04,28,14,25,12.80
2014,04,28,14,26,12.90
2014,04,28,14,27,13.00
2014,04,28,14,28,13.00
2014,04,28,14,29,13.10
2014,04,28,14,30,13.10
2014,04,28,14,31,13.10
2014,04,28,14,32,13.00
2014,04,28,14,33,12.90
2014,04,28,14,34,12.90
2014,04,28,14,35,12.90
2014,04,28,14,36,13.00
2014,04,28,14,37,13.00
2014,04,28,14,38,13.10
2014,04,28,14,39,13.10
2014,04,28,14,40,13.20
2014,04,28,14,41,13.20
2014,04,28,14,42,13.20
2014,04,28,14,43,13.10
2014,04,28,14,44,13.00
2014,04,28,14,45,12.90
2014,04,28,14,46,12.80
2014,04,28,14,47,12.80
2014,04,28,14,48,12.70
2014,04,28,14,49,12.70
2014,04,28,14,50,12.70
2014,04,28,14,51,12.60
2014,04,28,14,52,12.50
2014,04,28,14,53,12.50
2014,04,28,14,54,12.40
2014,04,28,14,55,12.40
2014,04,28,14,56,12.40
2014,04,28,14,57,12.30
2014,04,28,14,58,12.40
2014,04,28,14,59,12.40
2014,04,28,15,00,12.40
2014,04,28,15,01,12.40
2014,04,28,15,02,12.30
2014,04,28,15,03,12.30
2014,04,28,15,04,12.30
2014,04,28,15,05,12.30
2014,04,28,15,06,12.20
2014,04,28,15,07,12.20
2014,04,28,15,08,12.10
2014,04,28,15,09,12.00
2014,04,28,15,10,11.90
2014,04,28,15,11,11.90
2014,04,28,15,12,11.90
2014,04,28,15,13,11.90
2014,04,28,15,14,11.90
2014,04,28,15,15,12.00
2014,04,28,15,16,12.10
2014,04,28,15,17,12.10
2014,04,28,15,18,12.20
2014,04,28,15,19,12.30
2014,04,28,15,20,12.30
2014,04,28,15,21,12.30
2014,04,28,15,22,12.30
2014,04,28,15,23,12.40
2014,04,28,15,24,12.40
2014,04,28,15,25,12.40
2014,04,28,15,26,12.40
2014,04,28,15,27,12.40
2014,04,28,15,28,12.40
2014,04,28,15,29,12.50
2014,04,28,15,30,12.50
2014,04,28,15,31,12.50
2014,04,28,15,32,12.50
2014,04,28,15,33,12.60
2014,04,28,15,34,12.60
2014,04,28,15,35,12.60
2014,04,28,15,36,12.60
2014,04,28,15,37,12.60
2014,04,28,15,38,12.60
2014,04,28,15,39,12.50
2014,04,28,15,40,12.50
2014,04,28,15,41,12.50
2014,04,28,15,42,12.60
2014,04,28,15,43,12.60
2014,04,28,15,44,12.60
2014,04,28,15,45,12.60
2014,04,28,15,46,12.70
2014,04,28,15,47,12.70
2014,04,28,15,48,12.70
2014,04,28,15,49,12.70
2014,04,28,15,50,12.60
2014,04,28,15,51,12.60
2014,04,28,15,52,12.60
2014,04,28,15,53,12.60
2014,04,28,15,54,12.50
2014,04,28,15,55,12.50
2014,04,28,15,56,12.40
2014,04,28,15,57,12.40
2014,04,28,15,58,12.40
2014,04,28,15,59,12.50
2014,04,28,16,00,12.50
2014,04,28,16,01,12.60
2014,04,28,16,02,12.60
2014,04,28,16,03,12.60
2014,04,28,16,04,12.60
2014,04,28,16,05,12.60
2014,04,28,16,06,12.60
2014,04,28,16,07,12.60
2014,04,28,16,08,12.60
2014,04,28,16,09,12.60
2014,04,28,16,10,12.70
2014,04,28,16,11,12.70
2014,04,28,16,12,12.70
2014,04,28,16,13,12.80
2014,04,28,16,14,12.80
2014,04,28,16,15,12.90
2014,04,28,16,16,12.90
2014,04,28,16,17,12.90
2014,04,28,16,18,12.90
2014,04,28,16,19,12.90
2014,04,28,16,20,12.80
2014,04,28,16,21,12.80
2014,04,28,16,22,12.80
2014,04,28,16,23,12.80
2014,04,28,16,24,12.80
2014,04,28,16,25,12.80
2014,04,28,16,26,12.80
2014,04,28,16,27,12.80
2014,04,28,16,28,12.80
2014,04,28,16,29,12.80
2014,04,28,16,30,12.80
2014,04,28,16,31,12.80
2014,04,28,16,32,12.90
2014,04,28,16,33,12.90
2014,04,28,16,34,12.90
2014,04,28,16,35,12.80
2014,04,28,16,36,12.70
2014,04,28,16,37,12.70
2014,04,28,16,38,12.70
2014,04,28,16,39,12.70
2014,04,28,16,40,12.70
2014,04,28,16,41,12.70
2014,04,28,16,42,12.70
2014,04,28,16,43,12.80
2014,04,28,16,44,12.90
2014,04,28,16,45,12.90
2014,04,28,16,46,13.00
2014,04,28,16,47,13.00
2014,04,28,16,48,12.90
2014,04,28,16,49,12.80
2014,04,28,16,50,12.70
2014,04,28,16,51,12.60
2014,04,28,16,52,12.50
2014,04,28,16,53,12.40
2014,04,28,16,54,12.30
2014,04,28,16,55,12.30
2014,04,28,16,56,12.20
2014,04,28,16,57,12.10
2014,04,28,16,58,12.10
2014,04,28,16,59,12.10
2014,04,28,17,00,12.00
2014,04,28,17,01,12.00
2014,04,28,17,02,12.00
2014,04,28,17,03,12.00
2014,04,28,17,04,12.00
2014,04,28,17,05,12.00
2014,04,28,17,06,12.10
2014,04,28,17,07,12.10
2014,04,28,17,08,12.20
2014,04,28,17,09,12.20
2014,04,28,17,10,12.30
2014,04,28,17,11,12.30
2014,04,28,17,12,12.40
2014,04,28,17,13,12.50
2014,04,28,17,14,12.50
2014,04,28,17,15,12.60
2014,04,28,17,16,12.60
2014,04,28,17,17,12.70
2014,04,28,17,18,12.70
2014,04,28,17,19,12.80
2014,04,28,17,20,12.80
2014,04,28,17,21,12.80
2014,04,28,17,22,12.90
2014,04,28,17,23,12.90
2014,04,28,17,24,12.90
2014,04,28,17,25,12.90
2014,04,28,17,26,12.90
2014,04,28,17,27,12.90
2014,04,28,17,28,12.90
2014,04,28,17,29,13.00
2014,04,28,17,30,13.00
2014,04,28,17,31,13.00
2014,04,28,17,32,12.90
2014,04,28,17,33,12.90
2014,04,28,17,34,12.80
2014,04,28,17,35,12.80
2014,04,28,17,36,12.70
2014,04,28,17,37,12.60
2014,04,28,17,38,12.50
2014,04,28,17,39,12.40
2014,04,28,17,40,12.40
2014,04,28,17,41,12.30
2014,04,28,17,42,12.30
2014,04,28,17,43,12.20
2014,04,28,17,44,12.20
2014,04,28,17,45,12.20
2014,04,28,17,46,12.20
2014,04,28,17,47,12.20